Location: Unspecified
(51.0950°N, 12.9690°E)
Time: 22:57:43
(UTC+00:00)

JY1SAT - Pass Details

Date: 26 April 2024
Orbit: 538 x 552 km, 97.5° (Epoch: 26 May)

Event Time Altitude Azimuth Distance (km) Brightness Sun altitude
Exits shadow 20:16:55 18° 185° (S) 1,401 ? -15.4°
Maximum altitude 20:19:45 56° 260° (W) 655 ? -15.7°
Drops below altitude 10° 20:23:37 10° 339° (NNW) 1,822 ? -16.1°
Sets 20:25:47 0° 344° (NNW) 2,717 ? -16.3°
